Location: Unspecified
(0.0000°N, 0.0000°E)
Time: 13:45:19
(UTC+01:00)

AO-40 - Visible Passes

Search period start: 04 March 2015 00:00
Search period end: 14 March 2015 00:00
Orbit: 1065 x 58756 km, 9.0° (Epoch: 01 March)

Date Brightness Start Highest point End Pass type
(mag) Time Alt. Az. Time Alt. Az. Time Alt. Az.
05 Mar ? 11:07:21 10° WSW 06:03:20 55° S 06:21:10 10° ESE visible
06 Mar ? 09:35:31 10° E 10:40:00 - E 19:46:07 10° E visible
06 Mar ? 09:35:31 10° E 00:39:31 36° WNW 00:39:31 36° WNW visible
09 Mar ? 10:39:33 10° WSW 05:35:34 54° S 05:50:23 10° ESE visible
10 Mar ? 09:29:58 10° E 00:13:48 44° WNW 00:13:48 44° WNW visible
